NOAA 16 DEB, 41538

Orbit data source: Space-Track

NOAA 16 DEB, 41538 is space debris in SSO originally from a launch on Thu, 21 Sep 2000 UTC launched from the Air Force Western Test Range (AFWTR). Debris objects in space refer to the collection of defunct objects orbiting the Earth. Examples of debris include non-operational satellites, rocket bodies, and fragments generated from explosions, collisions, or faulty payload assembly.

Loading next visibility...
Identifier
41538, 2000-055NN
Orbit
SSO
Country
Flag of USUS
Related business
Manufacturer
Unknown
Mission
Spacecraft
Bus & Motor
Unknown
Mass
Unknown
Launch date (UTC)
2000-09-21 (26 years ago)
Launch vehicle
Unknown
Launch site
Air Force Western Test Range (AFWTR)
Object type
Payload
Rocket body
Debris
Shape & HBR
Unknown shape, 0.1 m
Radar Cross Section
Small (<0.1 m²)

Expand to show TLE details & history
Last TLE update: 6 days ago

TLE from 6 days ago
0 NOAA 16 DEB
1 41538U 00055NN  26120.22563897  .00003830  00000-0  18695-2 0  9999
2 41538  98.7548 121.5518 0046166  52.7879 307.7496 14.18037230525814
Epoch: 2026-04-30T05:24Z
TLE epoch observation values (Epoch: 2026-04-30T05:24:55.207Z)
Latitude
-0.00005°
Longitude
-177.85351°
Altitude
814.623 km
Speed
7.456 km/s
True Right ascension
08h 06m 12s
True Declination
0° 00' 00"
Sunlit
Object was in daylight at epoch
Visualization orbit readout
Latitude
Unknown
Longitude
Unknown
Altitude
Unknown
Speed
Unknown
Apparent Right ascension
Unknown
Apparent Declination
Unknown
Sunlit
N/A
Visualization observer readout
Local Sidereal Time
06:37:25
Azimuth
Unknown
Elevation
Unknown
Doppler factor
Unknown
Orbital elements
Apogee altitude
862.435 km
Perigee altitude
795.888 km
Semi-major axis
7,207.299 km
Eccentricity
0.00462
Inclination
98.7548°
RAAN
121.5518°
Arg. of periapsis
52.7879°
True anomaly
307.32983°
Mean anomaly
307.7496°
Eccentric anomaly
307.53986°
Mean motion
3.54719 °/min
Orbital period
101.49 mins
BSTAR
0.0018695
Loading maneuver chart data...
Computing Atmospheric mass density...

Documentation

Showing up to 5 results
|